Weather History for Burlington, WA

Change the Weather History Date:

Saturday, February 16, 2013

  Actual Average Record
Temperature  
Mean Temperature 44 °F -  
Max Temperature 50 °F 48 °F 46 °F (2014)
Min Temperature 37 °F 36 °F 35 °F (2014)
Degree Days  
Heating Degree Days 22    
Moisture  
Dew Point 42 °F    
Average Humidity 95    
Maximum Humidity 100    
Minimum Humidity 76    
Precipitation  
Precipitation 0.00 in - - ()
Sea Level Pressure  
Sea Level Pressure 30.15 in    
Wind  
Wind Speed 4 mph (SW)    
Max Wind Speed 14 mph    
Max Gust Speed 24 mph    
Visibility 8 miles    
Events      
Averages and records for this station are not official NWS values.
T = Trace of Precipitation, MM = Missing Value Source: NWS Daily Summary

Daily Weather History Graph

Daily Weather History Graph

Search for Another Location

Airport:

Trip Planner

Search our weather history database for the weather conditions in past years. The results will help you decide how hot, cold, wet, or windy it might be!

Date:

Astronomy

Feb. 16, 2013 Rise Set
Actual Time 7:14 AM PST 5:33 PM PST
Civil Twilight 6:42 AM PST 6:05 PM PST
Nautical Twilight 6:05 AM PST 6:42 PM PST
Astronomical Twilight 5:29 AM PST 7:18 PM PST
Moon 9:55 AM PST (2/16) 12:12 AM PST (2/16)
Length of Visible Light 11h 23m
Length of Day
10h 18m
Waxing Crescent, 40% of the Moon is Illuminated
Feb 16
Waxing Crescent
Feb 17
First Quarter
Feb 25
Full
Mar 4
Last Quarter
Mar 11
New

Hourly Weather History & Observations

Time (PST) Temp. Windchill Dew Point Humidity Pressure Visibility Wind Dir Wind Speed Gust Speed Precip Events Conditions
12:15 AM 39.2 °F - 39.2 °F 100% 30.18 in 8.0 mi Calm Calm - 0.00 in   Mostly Cloudy
12:35 AM 37.4 °F - 37.4 °F 100% 30.18 in 2.5 mi Calm Calm - 0.00 in   Mostly Cloudy
12:55 AM 37.4 °F - 37.4 °F 100% 30.18 in 2.5 mi Calm Calm - 0.00 in   Mostly Cloudy
1:15 AM 37.4 °F - 37.4 °F 100% 30.18 in 3.0 mi Calm Calm - 0.00 in   Partly Cloudy
1:35 AM 37.4 °F 32.8 °F 37.4 °F 100% 30.17 in 5.0 mi East 5.8 mph - 0.00 in   Clear
1:55 AM 37.4 °F - 37.4 °F 100% 30.17 in 3.0 mi Calm Calm - 0.00 in   Mostly Cloudy
2:15 AM 39.2 °F - 39.2 °F 100% 30.17 in 3.0 mi Calm Calm - 0.00 in   Overcast
2:35 AM 39.2 °F - 39.2 °F 100% 30.17 in 3.0 mi Calm Calm - 0.00 in   Overcast
2:55 AM 39.2 °F 37.0 °F 39.2 °F 100% 30.16 in 2.5 mi SE 3.5 mph - 0.00 in   Overcast
3:15 AM 41.0 °F 39.0 °F 41.0 °F 100% 30.16 in 3.0 mi SSW 3.5 mph - 0.00 in   Overcast
3:35 AM 39.2 °F - 39.2 °F 100% 30.16 in 3.0 mi Calm Calm - 0.00 in   Overcast
3:55 AM 41.0 °F - 41.0 °F 100% 30.15 in 3.0 mi Calm Calm - 0.00 in   Overcast
4:15 AM 41.0 °F - 41.0 °F 100% 30.15 in 2.5 mi Calm Calm - 0.00 in   Overcast
4:35 AM 42.8 °F - 42.8 °F 100% 30.15 in 3.0 mi Calm Calm - 0.00 in   Overcast
5:15 AM 42.8 °F 39.3 °F 42.8 °F 100% 30.15 in 1.8 mi ESE 5.8 mph - 0.00 in   Overcast
5:35 AM 42.8 °F 40.1 °F 42.8 °F 100% 30.15 in 2.0 mi SSE 4.6 mph - 0.00 in   Overcast
5:55 AM 42.8 °F 41.1 °F 42.8 °F 100% 30.15 in 2.5 mi SSE 3.5 mph - 0.00 in   Overcast
6:15 AM 42.8 °F 41.1 °F 42.8 °F 100% 30.15 in 3.0 mi SSW 3.5 mph - 0.00 in   Overcast
6:35 AM 42.8 °F 39.3 °F 42.8 °F 100% 30.14 in 4.0 mi SSE 5.8 mph - 0.00 in   Overcast
6:55 AM 42.8 °F 39.3 °F 42.8 °F 100% 30.15 in 5.0 mi South 5.8 mph - 0.00 in   Overcast
7:15 AM 42.8 °F 39.3 °F 42.8 °F 100% 30.15 in 5.0 mi South 5.8 mph - 0.00 in   Overcast
7:35 AM 42.8 °F 38.0 °F 42.8 °F 100% 30.15 in 5.0 mi SSE 8.1 mph - 0.00 in   Overcast
10:15 AM 44.6 °F 40.7 °F 44.6 °F 100% 30.16 in 10.0 mi South 6.9 mph - 0.00 in   Overcast
10:35 AM 44.6 °F 40.2 °F 44.6 °F 100% 30.16 in 10.0 mi South 8.1 mph - 0.00 in   Overcast
10:55 AM 44.6 °F 40.2 °F 44.6 °F 100% 30.15 in 10.0 mi SSW 8.1 mph - 0.00 in   Overcast
11:15 AM 46.4 °F 43.5 °F 46.4 °F 100% 30.16 in 10.0 mi South 5.8 mph - 0.00 in   Scattered Clouds
11:35 AM 46.4 °F 42.4 °F 46.4 °F 100% 30.16 in 10.0 mi SSW 8.1 mph - 0.00 in   Mostly Cloudy
11:55 AM 46.4 °F 43.5 °F 46.4 °F 100% 30.15 in 10.0 mi WSW 5.8 mph - 0.00 in   Mostly Cloudy
12:15 PM 48.2 °F - 44.6 °F 87% 30.15 in 10.0 mi WSW 8.1 mph 17.3 mph 0.00 in   Overcast
12:35 PM 48.2 °F - 41.0 °F 76% 30.14 in 10.0 mi West 8.1 mph 17.3 mph 0.00 in   Mostly Cloudy
1:15 PM 50.0 °F - 42.8 °F 76% 30.14 in 10.0 mi West 11.5 mph 24.2 mph 0.00 in   Clear
1:35 PM 50.0 °F - 42.8 °F 76% 30.13 in 10.0 mi WNW 10.4 mph 17.3 mph 0.00 in   Clear
1:55 PM 50.0 °F - 42.8 °F 76% 30.13 in 10.0 mi West 8.1 mph 20.7 mph 0.00 in   Clear
2:15 PM 48.2 °F - 42.8 °F 82% 30.13 in 10.0 mi WSW 10.4 mph 24.2 mph 0.00 in   Clear
2:35 PM 48.2 °F - 41.0 °F 76% 30.12 in 10.0 mi West 8.1 mph 21.9 mph 0.00 in   Clear
2:55 PM 46.4 °F 41.9 °F 42.8 °F 87% 30.12 in 10.0 mi WSW 9.2 mph 17.3 mph 0.00 in   Partly Cloudy
3:15 PM 46.4 °F 41.1 °F 41.0 °F 81% 30.12 in 10.0 mi WSW 11.5 mph 23.0 mph 0.00 in   Partly Cloudy
3:35 PM 46.4 °F 41.5 °F 42.8 °F 87% 30.13 in 10.0 mi WSW 10.4 mph 24.2 mph 0.00 in   Mostly Cloudy
4:15 PM 44.6 °F 39.2 °F 44.6 °F 100% 30.14 in 9.0 mi WSW 10.4 mph 17.3 mph 0.00 in   Overcast
4:35 PM 44.6 °F 42.2 °F 44.6 °F 100% 30.13 in 10.0 mi West 4.6 mph - 0.00 in   Overcast
4:55 PM 44.6 °F 39.2 °F 44.6 °F 100% 30.12 in 10.0 mi SW 10.4 mph 20.7 mph 0.00 in   Mostly Cloudy
5:15 PM 44.6 °F 39.2 °F 44.6 °F 100% 30.12 in 10.0 mi WSW 10.4 mph 16.1 mph 0.00 in   Overcast
5:35 PM 44.6 °F 40.2 °F 42.8 °F 93% 30.12 in 10.0 mi West 8.1 mph - 0.00 in   Overcast
5:55 PM 44.6 °F 40.2 °F 42.8 °F 93% 30.12 in 10.0 mi WSW 8.1 mph 16.1 mph 0.00 in   Overcast
6:15 PM 44.6 °F 39.2 °F 42.8 °F 93% 30.12 in 10.0 mi West 10.4 mph 20.7 mph 0.00 in   Mostly Cloudy
6:35 PM 44.6 °F 39.2 °F 42.8 °F 93% 30.12 in 10.0 mi SW 10.4 mph 19.6 mph 0.00 in   Mostly Cloudy
6:55 PM 44.6 °F 39.2 °F 42.8 °F 93% 30.13 in 10.0 mi WSW 10.4 mph 19.6 mph 0.00 in   Overcast
7:15 PM 44.6 °F 38.1 °F 42.8 °F 93% 30.13 in 10.0 mi WSW 13.8 mph 20.7 mph 0.00 in   Mostly Cloudy
7:35 PM 44.6 °F 39.2 °F 42.8 °F 93% 30.14 in 9.0 mi WSW 10.4 mph 19.6 mph 0.00 in   Mostly Cloudy
7:55 PM 44.6 °F 38.8 °F 42.8 °F 93% 30.14 in 10.0 mi West 11.5 mph 19.6 mph 0.00 in   Mostly Cloudy
8:15 PM 44.6 °F 40.2 °F 42.8 °F 93% 30.14 in 10.0 mi WSW 8.1 mph 18.4 mph 0.00 in   Mostly Cloudy
8:35 PM 44.6 °F 39.7 °F 42.8 °F 93% 30.15 in 10.0 mi West 9.2 mph - 0.00 in   Overcast
8:55 PM 44.6 °F 40.7 °F 42.8 °F 93% 30.15 in 10.0 mi WSW 6.9 mph - 0.00 in   Mostly Cloudy
9:15 PM 44.6 °F 40.2 °F 42.8 °F 93% 30.15 in 10.0 mi WSW 8.1 mph - 0.00 in   Mostly Cloudy
9:35 PM 44.6 °F 41.4 °F 42.8 °F 93% 30.16 in 10.0 mi WSW 5.8 mph - 0.00 in   Overcast
9:55 PM 44.6 °F 41.4 °F 42.8 °F 93% 30.16 in 10.0 mi West 5.8 mph - 0.00 in   Overcast
10:15 PM 44.6 °F 40.7 °F 42.8 °F 93% 30.16 in 10.0 mi West 6.9 mph - 0.00 in   Overcast
10:35 PM 44.6 °F 41.4 °F 42.8 °F 93% 30.17 in 10.0 mi WSW 5.8 mph - 0.00 in   Overcast
10:55 PM 44.6 °F 41.4 °F 42.8 °F 93% 30.17 in 10.0 mi WSW 5.8 mph - 0.00 in   Overcast
11:15 PM 44.6 °F 40.7 °F 44.6 °F 100% 30.18 in 10.0 mi West 6.9 mph - 0.00 in   Overcast
11:35 PM 44.6 °F 41.4 °F 44.6 °F 100% 30.18 in 10.0 mi WSW 5.8 mph - 0.00 in   Overcast
11:55 PM 44.6 °F 41.4 °F 44.6 °F 100% 30.18 in 10.0 mi WSW 5.8 mph - 0.00 in   Mostly Cloudy